[[{"header":{"parameterUnit":"m.s-1","parameterCategory":1,"la1":30.2991,"la2":30.254,"lo1":-89.0895,"lo2":-89.0444,"dy":0.0017,"dx":0.0017,"nx":28,"ny":28,"refTime":"2024-06-06T09:00:00:Z","depth":0,"parameterNumber":2,"parameterNumberName":"U-component_of_WINDS"},"data":[0,0,0,0,0,0,0,0,0,0,0,0,0,0,0,0,0,0,0,0,0,0,0,0,0,0,0,0,0,0,0,0,0,0,0,0,0,0,0,0,0,0,0,0,0,0,0,0,0,0,0,0,0,0,0,0,0,0,1.7969,1.797,0,1.8012,1.8013,1.8013,1.799,1.7989,1.7988,1.7987,1.8028,1.803,1.8033,0,0,0,0,0,0,0,0,0,0,0,0,0,1.7864,1.7866,1.7969,1.797,1.797,1.8012,1.8013,1.8013,1.799,1.7989,1.7988,1.7986,1.8028,1.803,1.8033,0,0,0,0,0,0,0,0,0,0,0,0,0,1.7908,1.7866,1.7969,1.7964,1.7964,1.8012,1.8013,1.8014,1.7991,1.7989,1.7987,1.7986,1.8027,1.803,1.8033,1.8088,0,0,1.8043,1.8045,0,0,0,0,0,0,0,0,1.7906,1.7912,1.7964,1.7964,1.7964,1.7994,1.7991,1.8039,1.7991,1.798,1.7987,1.7985,1.8018,1.8022,1.8034,1.809,1.8092,1.8044,1.8046,1.8047,1.8048,0,0,0,0,0,0,0,1.7903,1.791,1.7986,1.7965,1.7965,1.7958,1.7963,1.8,1.8008,1.7981,1.798,1.7985,1.8018,1.8031,1.8035,1.8093,1.8043,1.8046,1.8048,1.805,1.8195,1.8197,0,0,0,0,0,0,1.79,1.7908,1.7985,1.7987,1.793,1.7962,1.7967,1.7986,1.8008,1.801,1.7987,1.7984,1.8026,1.8031,1.8036,1.8102,1.8047,1.805,1.8052,1.8193,1.8196,1.8198,0,0,0,0,0,0,1.7898,1.7908,1.7983,1.7947,1.7956,1.7965,1.7988,1.7988,1.8001,1.8012,1.8013,1.7998,1.8025,1.8031,1.8075,1.8103,1.8051,1.8054,1.8191,1.8194,1.8197,1.8234,0,0,0,0,0,0,1.7895,1.7907,1.7929,1.7948,1.7958,1.8023,1.7989,1.799,1.8007,1.8004,1.8024,1.8025,1.8024,1.8071,1.8079,1.8106,1.8057,1.8189,1.8192,1.8196,1.823,1.8237,1.8244,0,0,0,0,0,1.7892,1.7937,1.793,1.7939,1.7986,1.8025,1.803,1.8029,1.8009,1.8031,1.8038,1.8024,1.8098,1.8075,1.8084,1.8113,1.8187,1.8191,1.8195,1.8227,1.8236,1.8243,0,0,0,0,0,0,1.792,1.794,1.7932,1.7985,1.8004,1.8021,1.8048,1.8039,1.8062,1.8058,1.8055,1.8059,1.8105,1.8113,1.8087,1.8167,1.8139,1.8146,1.816,1.8169,1.8176,1.8173,1.806,0,0,0,0,0,1.7933,1.7963,1.7978,1.8024,1.8033,1.8039,1.8056,1.8053,1.8071,1.8079,1.8089,1.8107,1.8134,1.8152,1.8177,1.8231,1.8234,1.8255,1.8262,1.8267,1.8273,1.8301,1.831,1.8212,1.8212,1.8212,0,0,1.7959,1.7973,1.7993,1.803,1.8044,1.8074,1.8046,1.8079,1.8102,1.8084,1.8126,1.8134,1.8153,1.8202,1.8224,1.8211,1.8301,1.8273,1.8277,1.828,1.8306,1.8316,1.8324,1.8215,1.8214,1.8214,0,0,1.8022,1.8036,1.8076,1.809,1.8112,1.8115,1.8125,1.8143,1.8148,1.819,1.8177,1.8203,1.825,1.8264,1.8278,1.8345,1.8334,1.8353,1.8389,1.8417,1.8425,1.8432,1.8456,1.8464,1.8359,1.8359,1.8359,0,1.8052,1.8099,1.8097,1.8132,1.8148,1.8133,1.8172,1.8186,1.8215,1.8226,1.821,1.8268,1.828,1.8332,1.8349,1.836,1.837,1.8352,1.8424,1.8431,1.8437,1.846,1.8469,1.8361,1.8361,1.8361,1.8361,0,1.8134,1.8166,1.8195,1.8224,1.8243,1.828,1.8283,1.8302,1.8298,1.8302,1.8345,1.8359,1.8387,1.8398,1.8394,1.8449,1.844,1.8424,1.8397,1.8449,1.847,1.8479,1.8365,1.8364,1.8363,1.8362,0,0,1.8217,1.8244,1.8255,1.8267,1.829,1.8314,1.835,1.8378,1.8394,1.8414,1.8443,1.8483,1.8468,1.8483,1.848,1.8504,1.8556,1.8485,1.8485,1.8498,1.8618,1.863,1.864,1.8548,1.855,1.8551,1.8616,0,1.8282,1.8346,1.8345,1.8403,1.8432,1.8418,1.8449,1.8465,1.847,1.8495,1.85,1.8528,1.8507,1.8516,1.8539,1.8545,1.858,1.854,1.8575,1.8576,1.8571,1.8651,1.8664,1.8724,1.8624,1.8626,1.8627,0,1.8367,1.839,1.8452,1.8469,1.8482,1.8509,1.8535,1.8559,1.8576,1.8578,1.8595,1.8587,1.8622,1.8593,1.864,1.8613,1.8627,1.8632,1.8634,1.8637,1.8605,1.8657,1.8744,1.8753,1.864,1.8639,1.8638,0,1.8421,1.8468,1.8511,1.8522,1.8543,1.8563,1.8573,1.8589,1.8606,1.8627,1.8637,1.8662,1.8676,1.8695,1.8694,1.8673,1.8742,1.8712,1.8744,1.8744,1.8759,1.8758,1.885,1.8768,1.8768,1.8767,1.8767,0,1.8494,1.8532,1.8536,1.8562,1.8604,1.8602,1.8643,1.865,1.8664,1.8691,1.868,1.8705,1.8702,1.8727,1.8726,1.8765,1.8771,1.8773,1.8772,1.8774,1.8774,1.8784,1.8779,1.877,1.8769,1.8769,1.8768,0,1.8562,1.8566,1.8612,1.8629,1.8633,1.8664,1.8677,1.8702,1.8705,1.8739,1.8747,1.8752,1.8781,1.8782,1.8814,1.8814,1.8861,1.8856,1.8856,1.8855,1.8886,1.8883,1.8987,1.9,1.8909,1.891,1.8911,0,1.8609,1.8638,1.8658,1.8675,1.8686,1.8715,1.8732,1.873,1.8748,1.877,1.8791,1.8819,1.8841,1.8887,1.8893,1.8918,1.8913,1.8948,1.8917,1.8917,1.8913,1.8912,1.8915,1.8954,1.8955,1.8956,1.8956,0,1.869,1.8691,1.8716,1.8743,1.8764,1.8784,1.8803,1.8818,1.8818,1.8838,1.8868,1.8885,1.8918,1.8946,1.8969,1.8978,1.8967,1.8966,1.8974,1.8977,1.8976,1.8977,1.8873,1.8964,1.8963,1.8962,1.8962,1.8962,1.8749,1.8774,1.8792,1.8821,1.8835,1.8853,1.8877,1.8883,1.8908,1.8936,1.8933,1.8966,1.8981,1.9012,1.9023,1.9047,1.9035,1.9048,1.9051,1.9054,1.9057,1.8972,1.9052,1.9051,1.9051,1.9051,1.9051,0,1.883,1.8841,1.8868,1.8895,1.8917,1.8906,1.8926,1.8945,1.8974,1.899,1.9012,1.9046,1.9072,1.908,1.9105,1.9123,1.9119,1.913,1.9129,1.9131,1.9067,1.9057,1.9133,1.9133,1.9133,1.9133,1.9133,1.9133,1.8875,1.8917,1.892,1.8968,1.8978,1.9011,1.9023,1.9039,1.9052,1.909,1.9112,1.9118,1.913,1.9156,1.9179,1.9181,1.919,1.9204,1.9203,1.9143,1.9135,1.9127,1.9118,1.9206,1.9206,1.9265,1.9265,1.9266]},{"header":{"parameterUnit":"m.s-1","parameterCategory":1,"la1":30.2991,"la2":30.254,"lo1":-89.0895,"lo2":-89.0444,"dy":0.0017,"dx":0.0017,"nx":28,"ny":28,"refTime":"2024-06-06T09:00:00:Z","depth":0,"parameterNumber":3,"parameterNumberName":"V-component_of_WINDS"},"data":[0,0,0,0,0,0,0,0,0,0,0,0,0,0,0,0,0,0,0,0,0,0,0,0,0,0,0,0,0,0,0,0,0,0,0,0,0,0,0,0,0,0,0,0,0,0,0,0,0,0,0,0,0,0,0,0,0,0,1.8709,1.8709,0,1.8675,1.8674,1.8674,1.8686,1.8687,1.8688,1.8689,1.8647,1.8645,1.8643,0,0,0,0,0,0,0,0,0,0,0,0,0,1.8779,1.8778,1.8709,1.8709,1.8708,1.8675,1.8674,1.8674,1.8686,1.8687,1.8688,1.8689,1.8647,1.8645,1.8643,0,0,0,0,0,0,0,0,0,0,0,0,0,1.8747,1.8777,1.8709,1.871,1.871,1.8675,1.8674,1.8674,1.8686,1.8687,1.8688,1.8689,1.8648,1.8646,1.8643,1.8602,0,0,1.8634,1.8633,0,0,0,0,0,0,0,0,1.8749,1.8744,1.8711,1.871,1.871,1.8686,1.8684,1.8649,1.8686,1.8695,1.8689,1.869,1.8659,1.8655,1.8646,1.86,1.8598,1.8634,1.8632,1.8631,1.863,0,0,0,0,0,0,0,1.8751,1.8746,1.8695,1.871,1.871,1.8711,1.8708,1.8677,1.867,1.8694,1.8695,1.8691,1.8659,1.8648,1.8645,1.8598,1.8634,1.8632,1.863,1.8629,1.8516,1.8515,0,0,0,0,0,0,1.8754,1.8748,1.8696,1.8694,1.8733,1.8709,1.8705,1.8692,1.8671,1.8669,1.869,1.8692,1.8653,1.8648,1.8643,1.8593,1.8631,1.8629,1.8627,1.8517,1.8516,1.8514,0,0,0,0,0,0,1.8756,1.875,1.8698,1.8721,1.8715,1.8706,1.8692,1.8691,1.8681,1.8668,1.8666,1.8681,1.8653,1.8647,1.8613,1.8592,1.8627,1.8625,1.8519,1.8517,1.8515,1.8493,0,0,0,0,0,0,1.8758,1.875,1.8736,1.8721,1.8714,1.8669,1.8691,1.869,1.8677,1.8679,1.8659,1.8657,1.8654,1.8617,1.861,1.8589,1.8623,1.852,1.8518,1.8515,1.8496,1.8491,1.8487,0,0,0,0,0,1.876,1.873,1.8735,1.8729,1.8696,1.8668,1.8663,1.8662,1.8675,1.866,1.8651,1.8657,1.8596,1.8613,1.8605,1.8583,1.8522,1.8519,1.8516,1.8498,1.8492,1.8487,0,0,0,0,0,0,1.874,1.8728,1.8733,1.8698,1.8684,1.867,1.8651,1.8656,1.8636,1.8639,1.8636,1.8632,1.8596,1.8586,1.8605,1.8542,1.856,1.8556,1.855,1.8544,1.8539,1.8541,1.862,0,0,0,0,0,1.8732,1.8713,1.8702,1.8672,1.8665,1.8659,1.8647,1.8647,1.8632,1.8625,1.8614,1.8597,1.8574,1.8559,1.8537,1.8495,1.849,1.8476,1.8472,1.8468,1.8463,1.8439,1.8433,1.8504,1.8504,1.8504,0,0,1.8714,1.8705,1.8692,1.8667,1.8657,1.8634,1.8654,1.8629,1.8612,1.8621,1.8588,1.8579,1.856,1.8521,1.8504,1.8512,1.8443,1.8464,1.8461,1.8458,1.8435,1.8429,1.8423,1.8502,1.8502,1.8503,0,0,1.867,1.8662,1.8635,1.8625,1.8609,1.8606,1.86,1.8585,1.858,1.8548,1.8554,1.8532,1.8493,1.8479,1.8466,1.8418,1.8422,1.841,1.8385,1.8362,1.8356,1.8351,1.8332,1.8326,1.8406,1.8406,1.8406,0,1.8649,1.8617,1.862,1.8596,1.8584,1.8594,1.8565,1.8554,1.8531,1.8522,1.8533,1.8484,1.8471,1.8429,1.8417,1.8408,1.8399,1.8412,1.8358,1.8352,1.8348,1.8329,1.8322,1.8405,1.8405,1.8405,1.8405,0,1.8591,1.857,1.855,1.853,1.8516,1.8489,1.8486,1.8472,1.8474,1.8469,1.8434,1.842,1.8395,1.8386,1.8387,1.8343,1.8349,1.8359,1.8376,1.8339,1.8322,1.8315,1.8403,1.8403,1.8404,1.8404,0,0,1.8531,1.8515,1.8507,1.8498,1.8482,1.8464,1.8438,1.8416,1.8402,1.8387,1.8363,1.833,1.8339,1.8325,1.8325,1.8304,1.8265,1.8316,1.8316,1.8306,1.8214,1.8205,1.8197,1.8269,1.8267,1.8266,1.8215,0,1.8484,1.844,1.8443,1.84,1.8379,1.8389,1.8365,1.8352,1.8347,1.8326,1.832,1.8296,1.8311,1.8302,1.8283,1.8274,1.8246,1.8278,1.8244,1.8243,1.8246,1.8189,1.8179,1.8132,1.8208,1.8207,1.8207,0,1.8423,1.8408,1.8364,1.8351,1.8343,1.8322,1.8301,1.8283,1.8268,1.8265,1.825,1.8253,1.8224,1.8245,1.8204,1.8225,1.8212,1.8205,1.8203,1.8198,1.8221,1.818,1.8117,1.8109,1.8196,1.8197,1.8198,0,1.8382,1.835,1.8319,1.8311,1.8296,1.8281,1.8274,1.826,1.8247,1.8229,1.8219,1.8197,1.8184,1.8166,1.8162,1.8178,1.8121,1.8141,1.8115,1.8115,1.8101,1.8101,1.8032,1.8096,1.8096,1.8096,1.8096,0,1.8328,1.83,1.8301,1.8281,1.825,1.8253,1.8221,1.8215,1.8203,1.8181,1.8188,1.8167,1.8164,1.8142,1.8139,1.8104,1.8099,1.8094,1.8093,1.8092,1.8092,1.8081,1.8084,1.8094,1.8095,1.8095,1.8095,0,1.8275,1.8275,1.8242,1.8231,1.8228,1.8205,1.8195,1.8176,1.8172,1.8144,1.8138,1.8131,1.8105,1.8101,1.807,1.8067,1.8026,1.8029,1.8031,1.8031,1.8005,1.8007,1.7924,1.7913,1.7986,1.7985,1.7985,0,1.8239,1.8219,1.8207,1.8194,1.8186,1.8165,1.8152,1.8154,1.8139,1.8121,1.8103,1.8079,1.8059,1.8018,1.8008,1.7984,1.7986,1.7959,1.7982,1.7981,1.7983,1.7983,1.798,1.7953,1.7953,1.7952,1.7951,0,1.8176,1.8177,1.8159,1.8141,1.8126,1.8111,1.8097,1.8086,1.8085,1.8068,1.8043,1.8028,1.7998,1.7973,1.7949,1.7939,1.7944,1.7945,1.7937,1.7935,1.7936,1.7933,1.8017,1.7946,1.7946,1.7947,1.7947,1.7947,1.8129,1.8111,1.81,1.8079,1.807,1.8057,1.8038,1.8033,1.8013,1.799,1.7992,1.7964,1.7948,1.7918,1.7907,1.7883,1.7891,1.7881,1.7878,1.7874,1.7871,1.7942,1.7879,1.7879,1.7879,1.7879,1.7879,0,1.8064,1.8058,1.804,1.8021,1.8005,1.8014,1.7999,1.7984,1.796,1.7947,1.7928,1.7899,1.7875,1.7864,1.784,1.7823,1.7825,1.7817,1.7816,1.7814,1.7866,1.7874,1.7816,1.7816,1.7816,1.7816,1.7816,1.7816,1.8028,1.7998,1.7998,1.7962,1.7956,1.793,1.792,1.7908,1.7897,1.7865,1.7846,1.7841,1.7827,1.7803,1.778,1.7778,1.7767,1.7757,1.7755,1.7804,1.781,1.7816,1.7824,1.7756,1.7756,1.7705,1.7704,1.7704]}]]